Glennallen, AK

7:53 AM AKST on February 27, 2017 (GMT -0900)
Gulkana

Weather History for PAGK - February, 2013

Change the Weather History Date:

Thursday, February 14, 2013

  Actual Average Record
Temperature  
Mean Temperature 14 °F -  
Max Temperature 28 °F 10 °F 52 °F (2017)
Min Temperature 1 °F -9 °F -51 °F (1979)
Degree Days  
Heating Degree Days 50    
Moisture  
Dew Point 13 °F    
Average Humidity 72    
Maximum Humidity 92    
Minimum Humidity 39    
Precipitation  
Precipitation 0.02 in - - ()
Snow  
Snow 0.00 in - - ()
Snow Depth 5.00 in    
Sea Level Pressure  
Sea Level Pressure 29.48 in    
Wind  
Wind Speed 6 mph (NNE)    
Max Wind Speed 15 mph    
Max Gust Speed -    
Visibility 9 miles    
Events Snow    
Averages and records for this station are not official NWS values.
T = Trace of Precipitation, MM = Missing Value Source: NWS Daily Summary

Daily Weather History Graph

Daily Weather History Graph

Search for Another Location

Airport or City:

Trip Planner

Search our weather history database for the weather conditions in past years. The results will help you decide how hot, cold, wet, or windy it might be!

Date:

Astronomy

Feb. 14, 2013 Rise Set
Actual Time 8:29 AM AKST 5:23 PM AKST
Civil Twilight 7:42 AM AKST 6:10 PM AKST
Nautical Twilight 6:50 AM AKST 7:03 PM AKST
Astronomical Twilight 5:58 AM AKST 7:54 PM AKST
Moon 8:54 AM AKST (2/14) No Moon Set
Length of Visible Light 10h 28m
Length of Day
8h 53m
Waxing Crescent, 23% of the Moon is Illuminated
Feb 14
Waxing Crescent
Feb 17
First Quarter
Feb 25
Full
Mar 4
Last Quarter
Mar 11
New

Hourly Weather History & Observations

Time (AKST) Temp. Windchill Dew Point Humidity Pressure Visibility Wind Dir Wind Speed Gust Speed Precip Events Conditions
12:53 AM 26.1 °F 19.4 °F 12.0 °F 55% 29.83 in 10.0 mi East 5.8 mph - N/A   Scattered Clouds
1:53 AM 24.1 °F 17.0 °F 12.0 °F 60% 29.82 in 10.0 mi ENE 5.8 mph - N/A   Partly Cloudy
6:53 AM 17.1 °F 5.8 °F 6.1 °F 62% 29.70 in 10.0 mi North 9.2 mph - N/A   Overcast
7:53 AM 15.1 °F 3.3 °F 6.1 °F 68% 29.66 in 10.0 mi North 9.2 mph - N/A   Overcast
8:53 AM 15.1 °F 1.1 °F 5.0 °F 64% 29.61 in 10.0 mi North 12.7 mph - N/A   Overcast
9:53 AM 16.0 °F 2.3 °F 5.0 °F 62% 29.56 in 10.0 mi North 12.7 mph - N/A   Overcast
10:53 AM 18.0 °F 3.6 °F 5.0 °F 57% 29.52 in 10.0 mi NNE 15.0 mph - N/A   Overcast
11:53 AM 19.9 °F 6.7 °F 7.0 °F 57% 29.45 in 10.0 mi NNE 13.8 mph - N/A   Overcast
12:53 PM 21.0 °F 8.6 °F 8.1 °F 57% 29.41 in 10.0 mi North 12.7 mph - N/A   Overcast
1:53 PM 24.1 °F 18.2 °F 9.0 °F 53% 29.39 in 10.0 mi North 4.6 mph - N/A   Overcast
2:53 PM 26.1 °F - 10.9 °F 53% 29.37 in 10.0 mi Calm Calm - 0.00 in Snow Light Snow
3:53 PM 25.0 °F - 15.1 °F 66% 29.35 in 10.0 mi Calm Calm - 0.00 in   Overcast
4:53 PM 24.1 °F 17.0 °F 16.0 °F 71% 29.37 in 10.0 mi SSE 5.8 mph - 0.00 in Snow Light Snow
5:53 PM 21.9 °F 15.7 °F 18.0 °F 85% 29.39 in 7.0 mi SSE 4.6 mph - 0.00 in Snow Light Snow
6:53 PM 21.9 °F 17.2 °F 19.0 °F 89% 29.42 in 3.0 mi South 3.5 mph - 0.01 in Snow Light Snow
7:16 PM 21.0 °F 14.6 °F 18.0 °F 88% 29.31 in 2.0 mi SW 4.6 mph - 0.00 in Snow Light Snow
7:53 PM 19.9 °F 13.4 °F 18.0 °F 92% 29.44 in 2.0 mi West 4.6 mph - 0.01 in Snow Light Snow
8:34 PM 21.0 °F - 18.0 °F 88% 29.33 in 10.0 mi Calm Calm - 0.00 in Snow Light Snow
8:53 PM 21.0 °F - 18.0 °F 88% 29.46 in 10.0 mi Calm Calm - 0.00 in Snow Light Snow
9:24 PM 21.0 °F - 18.0 °F 88% 29.36 in 10.0 mi Calm Calm - 0.00 in Snow Light Snow
9:35 PM 21.0 °F - 18.0 °F 88% 29.36 in 10.0 mi Calm Calm - 0.00 in   Overcast
9:45 PM 21.0 °F - 18.0 °F 88% 29.37 in 10.0 mi Calm Calm - 0.00 in   Overcast
9:53 PM 21.0 °F - 18.0 °F 88% 29.48 in 10.0 mi Calm Calm - 0.00 in   Overcast
10:01 PM 21.0 °F - 18.0 °F 88% 29.37 in 10.0 mi Calm Calm - N/A   Overcast
10:18 PM 21.0 °F - 18.0 °F 88% 29.38 in 10.0 mi Calm Calm - N/A   Overcast
10:53 PM 21.0 °F - 18.0 °F 88% 29.49 in 10.0 mi Calm Calm - N/A   Overcast
11:53 PM 21.0 °F - 19.0 °F 92% 29.51 in 5.0 mi Calm Calm - N/A   Overcast